Location: Dillon
(41.1766°N, 107.0923°W)
Time: 23:36:29
(UTC+00:00)

QB50P2 - Pass Details

Date: 01 July 2022
Orbit: 590 x 605 km, 97.9° (Epoch: 18 August)

Event Time Altitude Azimuth Distance (km) Brightness Sun altitude
Rises 08:08:58 0° 18° (NNE) 2,860 ? -24.4°
Reaches altitude 10° 08:11:13 10° 25° (NNE) 1,954 ? -24.3°
Maximum altitude 08:15:19 47° 99° (E) 805 ? -24.1°
Enters shadow 08:15:24 47° 103° (ESE) 806 ? -24.1°
